Location: Red Bud (historical)
(37.7759°N, 88.4053°W)
Time: 22:29:57
(UTC+00:00)

Helios 1A Rocket - Pass Details

Date: 29 October 2020
Orbit: 562 x 587 km, 98.3° (Epoch: 28 November)

Event Time Altitude Azimuth Distance (km) Brightness Sun altitude
Rises 23:35:59 0° 137° (SE) 2,794 6.1 -8.2°
Reaches altitude 10° 23:38:25 10° 124° (SE) 1,896 5.1 -8.7°
Maximum altitude 23:41:46 25° 69° (ENE) 1,201 4.0 -9.3°
Drops below altitude 10° 23:45:07 10° 15° (NNE) 1,896 5.3 -10.0°
Sets 23:47:33 0° 2° (N) 2,795 6.3 -10.4°
